Hot Springs, VA

7:00 PM EDT on October 16, 2017 (GMT -0400)
Ingalls

Weather History for KHSP - November, 2011

Change the Weather History Date:

Wednesday, November 23, 2011

  Actual Average Record
Temperature  
Mean Temperature 44 °F -  
Max Temperature 53 °F 43 °F 59 °F (2003)
Min Temperature 35 °F 30 °F 14 °F (1996)
Degree Days  
Heating Degree Days 21    
Moisture  
Dew Point 41 °F    
Average Humidity 92    
Maximum Humidity 100    
Minimum Humidity 75    
Precipitation  
Precipitation 0.04 in - - ()
Sea Level Pressure  
Sea Level Pressure 29.87 in    
Wind  
Wind Speed 22 mph (WNW)    
Max Wind Speed 32 mph    
Max Gust Speed 55 mph    
Visibility 8 miles    
Events Fog , Rain    
Averages and records for this station are not official NWS values.
T = Trace of Precipitation, MM = Missing Value Source: NWS Daily Summary

Daily Weather History Graph

Daily Weather History Graph

Search for Another Location

Airport or City:

Trip Planner

Search our weather history database for the weather conditions in past years. The results will help you decide how hot, cold, wet, or windy it might be!

Date:

Astronomy

Nov. 23, 2011 Rise Set
Actual Time 7:08 AM EST 5:02 PM EST
Civil Twilight 6:39 AM EST 5:31 PM EST
Nautical Twilight 6:07 AM EST 6:03 PM EST
Astronomical Twilight 5:35 AM EST 6:35 PM EST
Moon 5:11 AM EST (11/23) 3:42 PM EST (11/23)
Length of Visible Light 10h 51m
Length of Day
9h 54m
Waning Crescent, 4% of the Moon is Illuminated
Nov 23
Waning Crescent
Nov 25
New
Dec 2
First Quarter
Dec 10
Full
Dec 17
Last Quarter

Hourly Weather History & Observations

Time (EST) Temp. Windchill Dew Point Humidity Pressure Visibility Wind Dir Wind Speed Gust Speed Precip Events Conditions
12:15 AM 53.6 °F - 53.6 °F 100% 29.87 in 4.0 mi WSW 20.7 mph 33.4 mph 0.02 in   Drizzle
12:35 AM 53.6 °F - 53.6 °F 100% 29.87 in 1.2 mi WSW 18.4 mph 25.3 mph 0.03 in Rain Light Rain
12:55 AM 53.6 °F - 53.6 °F 100% 29.86 in 0.5 mi WSW 17.3 mph 20.7 mph N/A Rain Rain
1:15 AM 53.6 °F - 53.6 °F 100% 29.85 in 0.2 mi WSW 16.1 mph - 0.01 in Rain Heavy Rain
1:35 AM 53.6 °F - 53.6 °F 100% 29.84 in 0.2 mi West 15.0 mph 18.4 mph 0.03 in Rain Rain
1:55 AM 53.6 °F - 53.6 °F 100% 29.83 in 0.2 mi West 18.4 mph 25.3 mph N/A   Drizzle
2:15 AM 53.6 °F - 53.6 °F 100% 29.82 in 0.2 mi West 19.6 mph 24.2 mph N/A   Drizzle
2:35 AM 53.6 °F - 53.6 °F 100% 29.81 in 0.2 mi West 15.0 mph 24.2 mph N/A   Drizzle
2:55 AM 53.6 °F - 53.6 °F 100% 29.80 in 0.2 mi West 16.1 mph 25.3 mph N/A   Drizzle
3:35 AM 53.6 °F - 53.6 °F 100% 29.77 in 1.0 mi West 21.9 mph 31.1 mph N/A   Overcast
3:55 AM 51.8 °F - 51.8 °F 100% 29.77 in 0.5 mi West 20.7 mph 28.8 mph N/A Fog Fog
4:15 AM 51.8 °F - 51.8 °F 100% 29.76 in 10.0 mi West 25.3 mph 34.5 mph N/A   Overcast
4:35 AM 51.8 °F - 51.8 °F 100% 29.75 in 10.0 mi West 24.2 mph 32.2 mph N/A   Overcast
4:55 AM 51.8 °F - 51.8 °F 100% 29.75 in 10.0 mi West 23.0 mph 28.8 mph N/A   Overcast
5:15 AM 51.8 °F - 51.8 °F 100% 29.75 in 10.0 mi West 26.5 mph 33.4 mph N/A   Overcast
5:35 AM 51.8 °F - 51.8 °F 100% 29.76 in 10.0 mi West 24.2 mph 32.2 mph N/A   Overcast
5:55 AM 51.8 °F - 51.8 °F 100% 29.76 in 7.0 mi West 21.9 mph 27.6 mph N/A   Overcast
6:15 AM 50.0 °F - 50.0 °F 100% 29.76 in 5.0 mi West 20.7 mph 31.1 mph N/A Rain Light Rain
6:35 AM 48.2 °F - 48.2 °F 100% 29.76 in 1.0 mi West 26.5 mph 33.4 mph 0.01 in   Drizzle
6:55 AM 48.2 °F - 48.2 °F 100% 29.77 in 7.0 mi West 31.1 mph 39.1 mph N/A   Overcast
7:15 AM 46.4 °F 37.7 °F 46.4 °F 100% 29.76 in 10.0 mi West 26.5 mph 33.4 mph N/A   Overcast
7:35 AM 46.4 °F 37.9 °F 46.4 °F 100% 29.76 in 10.0 mi West 25.3 mph 38.0 mph N/A   Overcast
7:55 AM 46.4 °F 37.7 °F 46.4 °F 100% 29.77 in 7.0 mi West 26.5 mph 39.1 mph N/A   Overcast
8:15 AM 46.4 °F 38.3 °F 46.4 °F 100% 29.77 in 10.0 mi West 23.0 mph 32.2 mph N/A   Overcast
8:35 AM 44.6 °F 35.1 °F 44.6 °F 100% 29.77 in 10.0 mi West 27.6 mph 39.1 mph N/A   Overcast
8:55 AM 44.6 °F 35.5 °F 42.8 °F 93% 29.77 in 10.0 mi West 25.3 mph 35.7 mph N/A   Overcast
9:15 AM 42.8 °F 32.9 °F 41.0 °F 93% 29.78 in 10.0 mi West 26.5 mph 39.1 mph N/A   Overcast
9:35 AM 42.8 °F 32.5 °F 39.2 °F 87% 29.79 in 10.0 mi West 28.8 mph 41.4 mph N/A   Overcast
9:55 AM 39.2 °F 30.2 °F 37.4 °F 93% 29.80 in 5.0 mi WNW 17.3 mph 33.4 mph N/A   Drizzle
10:15 AM 39.2 °F 27.0 °F 37.4 °F 93% 29.78 in 10.0 mi West 32.2 mph 43.7 mph N/A   Overcast
10:35 AM 37.4 °F 25.6 °F 35.6 °F 93% 29.80 in 10.0 mi West 26.5 mph 42.6 mph N/A   Overcast
10:55 AM 37.4 °F 25.0 °F 33.8 °F 87% 29.80 in 10.0 mi WNW 29.9 mph 44.9 mph N/A   Mostly Cloudy
11:15 AM 35.6 °F 23.2 °F 33.8 °F 93% 29.81 in 10.0 mi WNW 26.5 mph 36.8 mph N/A   Mostly Cloudy
11:35 AM 35.6 °F 24.5 °F 32.0 °F 87% 29.83 in 10.0 mi WNW 20.7 mph 35.7 mph N/A   Overcast
11:55 AM 35.6 °F 23.2 °F 32.0 °F 87% 29.83 in 10.0 mi WNW 26.5 mph 35.7 mph N/A   Overcast
12:15 PM 35.6 °F 24.5 °F 32.0 °F 87% 29.84 in 10.0 mi NW 20.7 mph 36.8 mph N/A   Overcast
12:35 PM 37.4 °F 26.4 °F 32.0 °F 81% 29.85 in 10.0 mi WNW 23.0 mph 39.1 mph N/A   Overcast
1:15 PM 37.4 °F 25.2 °F 33.8 °F 87% 29.83 in 10.0 mi WNW 28.8 mph 44.9 mph N/A   Overcast
1:35 PM 37.4 °F 25.0 °F 33.8 °F 87% 29.84 in 10.0 mi NW 29.9 mph 55.2 mph N/A   Overcast
1:55 PM 37.4 °F 26.4 °F 33.8 °F 87% 29.88 in 10.0 mi NW 23.0 mph 36.8 mph N/A   Overcast
2:15 PM 37.4 °F 25.2 °F 33.8 °F 87% 29.89 in 10.0 mi NW 28.8 mph 41.4 mph N/A   Overcast
2:35 PM 37.4 °F 26.1 °F 35.6 °F 93% 29.91 in 10.0 mi NW 24.2 mph 36.8 mph N/A   Overcast
3:35 PM 35.6 °F 23.4 °F 33.8 °F 93% 29.95 in 10.0 mi NW 25.3 mph 36.8 mph N/A   Overcast
3:55 PM 35.6 °F 22.7 °F 33.8 °F 93% 29.96 in 10.0 mi NW 28.8 mph 40.3 mph N/A   Overcast
4:15 PM 35.6 °F 23.4 °F 33.8 °F 93% 29.98 in 10.0 mi NW 25.3 mph 35.7 mph N/A   Overcast
4:35 PM 35.6 °F 23.0 °F 33.8 °F 93% 29.98 in 10.0 mi WNW 27.6 mph 35.7 mph N/A   Overcast
4:55 PM 35.6 °F 24.0 °F 32.0 °F 87% 29.99 in 10.0 mi NW 23.0 mph 36.8 mph N/A   Overcast
5:15 PM 37.4 °F 26.1 °F 32.0 °F 81% 30.00 in 10.0 mi NW 24.2 mph 31.1 mph N/A   Overcast
5:35 PM 37.4 °F 27.8 °F 32.0 °F 81% 30.01 in 10.0 mi NW 17.3 mph 38.0 mph N/A   Overcast
5:55 PM 37.4 °F 27.2 °F 32.0 °F 81% 30.03 in 10.0 mi NW 19.6 mph 39.1 mph N/A   Overcast
6:15 PM 35.6 °F 23.7 °F 32.0 °F 87% 30.03 in 10.0 mi NW 24.2 mph 34.5 mph N/A   Mostly Cloudy
6:35 PM 35.6 °F 23.2 °F 30.2 °F 81% 30.02 in 10.0 mi NW 26.5 mph 39.1 mph N/A   Scattered Clouds
6:55 PM 35.6 °F 24.0 °F 30.2 °F 81% 30.02 in 10.0 mi NW 23.0 mph 34.5 mph N/A   Scattered Clouds
7:15 PM 35.6 °F 25.2 °F 30.2 °F 81% 30.04 in 10.0 mi NW 18.4 mph 33.4 mph N/A   Scattered Clouds
7:35 PM 35.6 °F 25.9 °F 30.2 °F 81% 30.06 in 10.0 mi NW 16.1 mph 31.1 mph N/A   Mostly Cloudy
7:55 PM 35.6 °F 25.2 °F 30.2 °F 81% 30.08 in 10.0 mi NW 18.4 mph 31.1 mph N/A   Mostly Cloudy
8:15 PM 35.6 °F 25.9 °F 30.2 °F 81% 30.08 in 10.0 mi NW 16.1 mph 31.1 mph N/A   Scattered Clouds
8:35 PM 35.6 °F 23.7 °F 30.2 °F 81% 30.08 in 10.0 mi WNW 24.2 mph 36.8 mph N/A   Scattered Clouds
8:55 PM 35.6 °F 25.5 °F 30.2 °F 81% 30.08 in 10.0 mi NW 17.3 mph 29.9 mph N/A   Scattered Clouds
9:35 PM 35.6 °F 24.8 °F 28.4 °F 75% 30.12 in 10.0 mi WNW 19.6 mph 28.8 mph N/A   Clear
10:15 PM 33.8 °F 21.6 °F 28.4 °F 81% 30.12 in 10.0 mi NW 23.0 mph 32.2 mph N/A   Clear
10:35 PM 35.6 °F 24.2 °F 28.4 °F 75% 30.12 in 10.0 mi NW 21.9 mph 36.8 mph N/A   Clear
10:55 PM 33.8 °F 21.6 °F 28.4 °F 81% 30.13 in 10.0 mi NW 23.0 mph 32.2 mph N/A   Clear
11:15 PM 33.8 °F 22.5 °F 28.4 °F 81% 30.14 in 10.0 mi NW 19.6 mph 28.8 mph N/A   Clear
11:55 PM 33.8 °F 22.5 °F 26.6 °F 75% 30.15 in 10.0 mi WNW 19.6 mph 28.8 mph N/A   Clear